[ hide orbit diagram ]
For accurate long-term ephemerides, please instead use our Horizons system.This orbit viewer was implemented using two-body methods, and hence should not be used for determining accurate long-term trajectories (over several years or decades) or planetary encounter circumstances.
Orbital Elements at Epoch 2459000.5 (2020-May-31.0) TDB
Reference: JPL 39 (heliocentric ecliptic J2000)
Element | Value | Uncertainty (1-sigma) | Units |
e | .09736481580981143 | 3.2678e-08 | |
a | 3.018762646780937 | 1.2687e-08 | au |
q | 2.724841377703572 | 9.5855e-08 | au |
i | 9.827878541726173 | 3.8321e-06 | deg |
node | 192.1007257201346 | 1.7411e-05 | deg |
peri | 135.1287337604924 | 2.5129e-05 | deg |
M | 29.22115538152127 | 1.8784e-05 | deg |
tp | 2458844.997720039281 (2019-Dec-27.49772004) | 9.9847e-05 | TDB |
period | 1915.7634273852 5.25 | 1.2077e-05 3.307e-08 | d yr |
n | .1879146427235847 | 1.1846e-09 | deg/d |
Q | 3.312683915858301 | 1.3922e-08 | au |
|
| | Orbit Determination Parameters
Additional Information
|
[ show covariance matrix ]
Physical Parameter Table
Parameter |
Symbol |
Value |
Units |
Sigma |
Reference |
Notes |
absolute magnitude |
H |
11.7 |
|
n/a |
MPO492771 |
|
diameter |
diameter |
15.448 |
km |
2.805 |
urn:nasa:pds:neowise_diameters_albedos::2.0[mainbelt] (http://adsabs.harvard.edu/abs/2012ApJ...759L...8M) |
|
rotation period |
rot_per |
35.399 |
h |
n/a |
LCDB (Rev. 2020-October); Warner et al., 2009 |
sidereal period (not synodic); Result based on less than full coverage, so that the period may be wrong by 30 percent or so. Published Reference List: [Durech, J.; Hanus, J. (2018) Astron. Astrophys. 620, A91.] |
geometric albedo |
albedo |
0.116 |
|
0.057 |
urn:nasa:pds:neowise_diameters_albedos::2.0[mainbelt] (http://adsabs.harvard.edu/abs/2015ApJ...814..117N) |
|
B-V |
BV |
0.750 |
|
0.030 |
EAR-A-5-DDR-UBV-MEAN-VALUES-V1.2 |
#obs=1; phase=10.87 deg. |
U-B |
UB |
0.340 |
|
0.080 |
EAR-A-5-DDR-UBV-MEAN-VALUES-V1.2 |
#obs=1; phase=10.87 deg. |
Tholen spectral type |
spec_T |
XC |
|
n/a |
EAR-A-5-DDR-TAXONOMY-V4.0 |
used 2 color indices |
|
1767 Lampland (1962 RJ) Discovered 1962-Sep-07 by Goethe Link Observatory at Brooklyn |
Discovered by the Indiana Asteroid Program, Goethe Link Observatory, University of Indiana. This program was conceived and directed by F. K. Edmondson; the plates were blinked and measured astrometrically by B. Potter and, following her retirement, by D. Owings; and the photometry was performed under the direction of T. Gehrels. During the years 1947-1967, in which the plates were exposed, a large number of people participated in various aspects of the program. |
Reference: DISCOVERY.DB | Last Updated: 2003-08-29 |
|
[ show close-approach data ]
Alternate Designations
1962 RJ = 1941 SP = 1967 SC |
|
|